• Processing (Info)

  • MPEC 2020-C06 : 2020 BH14

    The following Minor Planet Electronic Circular may be linked-to from your own Web pages, but must not otherwise be redistributed electronically.

    A form allowing access to any MPEC is at the bottom of this page.


    Read MPEC 2020-C05 Read MPEC 2020-C07


    M.P.E.C. 2020-C06                              Issued 2020 February 1, 16:02 UT
    
         The Minor Planet Electronic Circulars contain information on unusual
             minor planets and routine data on comets.  They are published
        on behalf of Division F of the International Astronomical Union by the
              Minor Planet Center, Smithsonian Astrophysical Observatory,
                              Cambridge, MA 02138, U.S.A.
    
                 Prepared using the Tamkin Foundation Computer Network
    
                                  MPC@CFA.HARVARD.EDU
                URL https://www.minorplanetcenter.net/    ISSN 1523-6714
    
                                    2020 BH14                                
    
    
    Observations:
         K20B14H* C2020 01 21.49015911 19 24.552+16 37 18.97         22.49wUEC006F51
         K20B14H  C2020 01 21.50365411 19 23.476+16 37 20.69         22.54wUEC006F51
         K20B14H  C2020 01 21.51710211 19 22.424+16 37 22.53         22.46wUEC006F51
         K20B14H  C2020 01 21.53062211 19 21.351+16 37 24.01         22.68wUEC006F51
         K20B14H KC2020 01 24.48463 11 15 24.14 +16 43 40.1          22.3 RoEC006691
         K20B14H KC2020 01 24.51061 11 15 21.95 +16 43 43.5          22.4 RoEC006691
         K20B14H KC2020 01 24.53186 11 15 20.19 +16 43 45.6          22.2 RoEC006691
         K20B14H KC2020 01 26.52786 11 12 29.82 +16 48 16.3          21.7 RoEC006291
         K20B14H KC2020 01 26.53987 11 12 28.75 +16 48 17.9          22.0 RoEC006291
         K20B14H KC2020 01 26.55191 11 12 27.69 +16 48 19.3          22.1 RoEC006291
         K20B14H KC2020 02 01.52522 11 03 15.34 +17 02 15.5                oEC006291
         K20B14H KC2020 02 01.53388 11 03 14.55 +17 02 17.4          22.6 RoEC006291
         K20B14H KC2020 02 01.54255 11 03 13.65 +17 02 18.9          21.7 RoEC006291
    
    Observer details:
    291 LPL/Spacewatch II.  Observers M. J. Brucker, J. V. Scotti.  1.8-m f/2.7 
       reflector + CCD.
    691 Steward Observatory, Kitt Peak-Spacewatch.  Observer M. J. Brucker.  0.9-m 
       f/3 reflector + CCD.
    F51 Pan-STARRS 1, Haleakala.  Observers J. Bulger, T. Lowe, A. Schultz, M. 
       Willman.  Measurers K. Chambers, S. Chastel, T. de Boer, L. Denneau, J. 
       Fairlamb, H. Flewelling, M. Huber, C.-C. Lin, E. Magnier, Y. Ramanjooloo, R. 
       Wainscoat, R. Weryk.  1.8-m Ritchey-Chretien + CCD.
    
    Orbital elements:
    2020 BH14                                                Earth MOID = 0.1592 AU
    Epoch 2020 May 31.0 TT = JDT 2459000.5                  Bell
    M  88.38956              (2000.0)            P               Q
    n   0.27876350     Peri.   32.86202     +0.95038451     -0.26742421
    a   2.3208413      Node   340.63283     +0.05323118     +0.64312124
    e   0.6644779      Incl.   28.63339     +0.30648935     +0.71755095
    P   3.54           H   18.8           G   0.15           U   8
    Residuals in seconds of arc
    200121 F51  0.0   0.0     200124 691  0.1-  0.1+    200201 291  0.4-  0.6-
    200121 F51  0.1-  0.0     200124 691  0.6+  0.5-    200201 291  0.5+  0.1+
    200121 F51  0.1+  0.1+    200126 291  0.0   0.1+    200201 291  0.1-  0.5+
    200121 F51  0.1+  0.1-    200126 291  0.1-  0.1+
    200124 691  0.5-  0.1+    200126 291  0.1+  0.0
    
    Ephemeris:
    2020 BH14                a,e,i = 2.32, 0.66, 29                  q = 0.7787
    Date    TT    R. A. (2000) Decl.     Delta      r    Elong.  Phase     V
    2020 01 02    11 37 03.2 +16 19 02   1.6033  2.1722   112.0    24.8    22.7
    ...
    2020 01 17    11 24 47.7 +16 29 03   1.5322  2.2890   129.7    19.3    22.5
    ...
    2020 01 25    11 14 41.2 +16 44 50   1.5088  2.3491   139.9    15.7    22.4
    ...
    2020 01 31    11 05 42.2 +16 58 44   1.5009  2.3931   147.9    12.6    22.3
    2020 02 01    11 04 06.5 +17 01 04   1.5005  2.4004   149.2    12.1    22.3
    2020 02 02    11 02 29.4 +17 03 24   1.5004  2.4076   150.5    11.6    22.3
    ...
    2020 02 08    10 52 21.5 +17 16 35   1.5059  2.4505   158.6     8.5    22.2
    ...
    2020 02 16    10 38 12.1 +17 30 03   1.5308  2.5064   168.5     4.5    22.1
    ...
    2020 03 02    10 12 37.0 +17 34 16   1.6350  2.6074   165.9     5.3    22.4
    
    A. U. Tomatic                (C) Copyright 2020 MPC           M.P.E.C. 2020-C06
    


    Read MPEC 2020-C05 Read MPEC 2020-C07


    MPEC number:

    Enter an MPEC number in one of the following forms:

    • 1997-B01 (the full form)
    • J97B01 (the packed version of the full form)
    • B01 (the abbreviated form)